User: anonymous   Login
Location: Catenanuova
(37.5690°N, 14.6870°E)
Time: 00:44:02
(UTC+02:00)
Language:

Tiangong - Orbit

View from above orbital plane
View from above orbital plane
View from above satellite
View from above satellite

Ground track
Ground track

The orbit data is extracted from the following two-line orbital elements,

1 48274U 21035A   24173.12951065  .00035111  00000-0  38865-3 0  9996
2 48274  41.4689  59.0808 0004692 256.6232 103.4084 15.62267360179719
Epoch (UTC): 21 June 2024 03:06:29
Eccentricity: 0.0004692
inclination: 41.4689°
perigee height: 378 km
apogee height: 384 km
right ascension of ascending node: 59.0808°
argument of perigee: 256.6232°
revolutions per day: 15.62267360
mean anomaly at epoch: 103.4084°
orbit number at epoch: 17971

The dashed part of the orbit path shows where the satellite is in the earth's shadow,  

DLR